| time (UTC) | temp C | wind direction | speed KPH | gust KPH | rain 1hr cm | rain 24hr cm | rain mn cm | humidity % | barometer mb |
| 20260509043035 | 11 | 236 | 0.0 | 0.0 | 0.00 | 0.13 | 0.00 | 92 | 1007.0 |
| 20260509041524 | 11 | 259 | 0.0 | 0.0 | 0.00 | 0.13 | 0.00 | 92 | 1007.3 |
| 20260509040022 | 11 | 229 | 0.0 | 0.0 | 0.00 | 0.13 | 0.00 | 92 | 1007.3 |
| 20260509034522 | 11 | 252 | 0.0 | 0.0 | 0.00 | 0.13 | 0.13 | 91 | 1007.4 |
| 20260509033025 | 11 | 256 | 0.0 | 3.2 | 0.00 | 0.13 | 0.13 | 91 | 1007.5 |
| 20260509031526 | 11 | 281 | 0.0 | 4.8 | 0.00 | 0.13 | 0.13 | 91 | 1007.5 |
| 20260509030022 | 11 | 262 | 0.0 | 6.4 | 0.00 | 0.13 | 0.13 | 90 | 1007.7 |
| 20260509024521 | 11 | 262 | 0.0 | 3.2 | 0.00 | 0.13 | 0.13 | 90 | 1007.8 |
| 20260509023019 | 12 | 257 | 1.6 | 4.8 | 0.00 | 0.13 | 0.13 | 89 | 1007.7 |
| 20260509021519 | 12 | 259 | 1.6 | 4.8 | 0.00 | 0.13 | 0.13 | 89 | 1007.7 |
| 20260509020021 | 12 | 274 | 1.6 | 6.4 | 0.00 | 0.13 | 0.13 | 88 | 1007.8 |
| 20260509014518 | 12 | 278 | 1.6 | 8.0 | 0.00 | 0.56 | 0.13 | 87 | 1007.7 |
| 20260509013017 | 13 | 281 | 3.2 | 9.7 | 0.00 | 0.56 | 0.13 | 86 | 1007.6 |
| 20260509011517 | 13 | 278 | 4.8 | 11.3 | 0.00 | 0.56 | 0.13 | 85 | 1007.4 |
| 20260509010017 | 13 | 282 | 8.0 | 12.9 | 0.00 | 0.56 | 0.13 | 85 | 1007.3 |
| 20260509004616 | 13 | 278 | 4.8 | 9.7 | 0.00 | 0.56 | 0.13 | 83 | 1007.3 |
| 20260509003014 | 13 | 284 | 6.4 | 9.7 | 0.00 | 0.56 | 0.13 | 82 | 1007.2 |
| 20260509001513 | 14 | 297 | 4.8 | 16.1 | 0.00 | 0.56 | 0.13 | 81 | 1007.2 |
| 20260509000024 | 14 | 283 | 9.7 | 16.1 | 0.00 | 0.56 | 0.13 | 81 | 1007.2 |
| 20260508234513 | 14 | 271 | 8.0 | 20.9 | 0.00 | 0.56 | 0.13 | 82 | 1007.2 |
| 20260508233013 | 15 | 290 | 11.3 | 17.7 | 0.00 | 0.56 | 0.13 | 81 | 1007.2 |
| 20260508231510 | 15 | 304 | 9.7 | 14.5 | 0.00 | 0.56 | 0.13 | 81 | 1007.3 |
| 20260508230009 | 15 | 281 | 6.4 | 16.1 | 0.00 | 0.56 | 0.13 | 81 | 1007.5 |
| 20260508224526 | 14 | 277 | 11.3 | 19.3 | 0.00 | 0.56 | 0.13 | 80 | 1007.6 |
| 20260508223010 | 15 | 278 | 11.3 | 20.9 | 0.00 | 0.56 | 0.13 | 80 | 1007.5 |
| 20260508221506 | 15 | 269 | 12.9 | 19.3 | 0.00 | 0.56 | 0.13 | 78 | 1007.4 |
| 20260508220005 | 15 | 283 | 11.3 | 24.1 | 0.00 | 0.56 | 0.13 | 75 | 1007.5 |
| 20260508214505 | 15 | 280 | 12.9 | 24.1 | 0.00 | 0.56 | 0.13 | 76 | 1007.5 |
| 20260508213006 | 15 | 304 | 8.0 | 24.1 | 0.00 | 0.56 | 0.13 | 77 | 1007.6 |
| 20260508211600 | 15 | 308 | 16.1 | 27.4 | 0.00 | 0.56 | 0.13 | 77 | 1007.7 |
| 20260508210059 | 15 | 301 | 8.0 | 16.1 | 0.00 | 0.56 | 0.13 | 77 | 1007.6 |
| 20260508204559 | 14 | 270 | 6.4 | 11.3 | 0.00 | 0.56 | 0.13 | 78 | 1007.9 |
| 20260508203100 | 14 | 316 | 8.0 | 19.3 | 0.00 | 0.56 | 0.13 | 78 | 1008.1 |
| 20260508201554 | 14 | 248 | 6.4 | 17.7 | 0.00 | 0.56 | 0.13 | 76 | 1008.3 |
| 20260508200105 | 15 | 236 | 1.6 | 8.0 | 0.00 | 0.56 | 0.13 | 72 | 1008.5 |
| 20260508194548 | 15 | 260 | 4.8 | 8.0 | 0.00 | 0.56 | 0.13 | 73 | 1008.5 |
| 20260508193057 | 15 | 256 | 3.2 | 6.4 | 0.00 | 0.56 | 0.13 | 71 | 1008.9 |
| 20260508191541 | 14 | 266 | 1.6 | 4.8 | 0.00 | 0.56 | 0.13 | 72 | 1009.2 |
| 20260508190038 | 14 | 266 | 0.0 | 1.6 | 0.00 | 0.56 | 0.13 | 77 | 1009.6 |
| 20260508184537 | 13 | 267 | 0.0 | 6.4 | 0.00 | 0.56 | 0.13 | 78 | 1009.6 |
| 20260508183039 | 13 | 290 | 3.2 | 11.3 | 0.00 | 0.56 | 0.13 | 79 | 1009.9 |
| 20260508181530 | 13 | 292 | 4.8 | 9.7 | 0.00 | 0.56 | 0.13 | 78 | 1010.2 |
| 20260508180031 | 13 | 294 | 3.2 | 14.5 | 0.00 | 0.56 | 0.13 | 77 | 1010.4 |
| 20260508174527 | 13 | 257 | 6.4 | 8.0 | 0.00 | 0.56 | 0.13 | 79 | 1010.4 |
| 20260508173027 | 13 | 267 | 0.0 | 1.6 | 0.00 | 0.56 | 0.13 | 83 | 1010.6 |
| 20260508171531 | 13 | 267 | 0.0 | 3.2 | 0.00 | 0.56 | 0.13 | 84 | 1010.8 |
| 20260508170016 | 12 | 201 | 0.0 | 4.8 | 0.00 | 0.56 | 0.13 | 86 | 1011.0 |
| 20260508164513 | 12 | 218 | 1.6 | 4.8 | 0.00 | 0.56 | 0.13 | 86 | 1011.2 |
| 20260508163009 | 11 | 266 | 0.0 | 4.8 | 0.03 | 0.56 | 0.13 | 87 | 1011.5 |
| 20260508161512 | 11 | 259 | 1.6 | 6.4 | 0.03 | 0.56 | 0.13 | 87 | 1011.6 |
| 20260508160008 | 11 | 267 | 1.6 | 9.7 | 0.03 | 0.56 | 0.13 | 87 | 1011.8 |
| 20260508154508 | 11 | 273 | 3.2 | 8.0 | 0.03 | 0.56 | 0.13 | 87 | 1011.7 |
| 20260508153007 | 11 | 281 | 4.8 | 12.9 | 0.00 | 0.53 | 0.10 | 86 | 1011.6 |
| 20260508151505 | 11 | 264 | 8.0 | 17.7 | 0.00 | 0.53 | 0.10 | 88 | 1011.6 |
| 20260508150125 | 11 | 266 | 4.8 | 9.7 | 0.00 | 0.53 | 0.10 | 89 | 1011.7 |
| 20260508144604 | 10 | 260 | 4.8 | 9.7 | 0.03 | 0.53 | 0.10 | 92 | 1011.8 |
| 20260508143054 | 10 | 57 | 0.0 | 4.8 | 0.08 | 0.53 | 0.10 | 93 | 1011.9 |
| 20260508141559 | 10 | 267 | 6.4 | 11.3 | 0.08 | 0.53 | 0.10 | 92 | 1012.0 |
| 20260508140055 | 9 | 294 | 6.4 | 16.1 | 0.08 | 0.53 | 0.10 | 92 | 1012.5 |
| 20260508134545 | 10 | 276 | 8.0 | 16.1 | 0.05 | 0.51 | 0.08 | 91 | 1012.4 |
| 20260508133043 | 10 | 302 | 4.8 | 12.9 | 0.00 | 0.46 | 0.03 | 90 | 1012.5 |
| 20260508131539 | 9 | 283 | 1.6 | 9.7 | 0.00 | 0.46 | 0.03 | 89 | 1012.1 |
| 20260508130037 | 9 | 286 | 4.8 | 9.7 | 0.00 | 0.46 | 0.03 | 89 | 1012.3 |
| 20260508124532 | 9 | 278 | 3.2 | 8.0 | 0.00 | 0.46 | 0.03 | 89 | 1012.2 |
| 20260508123032 | 8 | 271 | 1.6 | 6.4 | 0.00 | 0.46 | 0.03 | 89 | 1012.1 |
| 20260508121528 | 8 | 273 | 0.0 | 6.4 | 0.00 | 0.46 | 0.03 | 89 | 1012.2 |
| 20260508120025 | 8 | 276 | 3.2 | 6.4 | 0.00 | 0.46 | 0.03 | 90 | 1012.0 |
| 20260508114530 | 8 | 286 | 1.6 | 8.0 | 0.00 | 0.46 | 0.03 | 90 | 1012.0 |
| 20260508113025 | 8 | 281 | 0.0 | 4.8 | 0.00 | 0.46 | 0.03 | 90 | 1011.9 |
| 20260508111516 | 7 | 281 | 0.0 | 1.6 | 0.00 | 0.46 | 0.03 | 90 | 1011.9 |
| 20260508110016 | 7 | 281 | 0.0 | 6.4 | 0.00 | 0.46 | 0.03 | 90 | 1011.7 |
| 20260508104516 | 7 | 316 | 1.6 | 6.4 | 0.00 | 0.46 | 0.03 | 90 | 1011.8 |
| 20260508103016 | 8 | 276 | 1.6 | 8.0 | 0.00 | 0.46 | 0.03 | 89 | 1011.5 |
| 20260508101513 | 8 | 309 | 1.6 | 8.0 | 0.00 | 0.46 | 0.03 | 89 | 1011.7 |
| 20260508100010 | 8 | 283 | 4.8 | 8.0 | 0.00 | 0.46 | 0.03 | 89 | 1011.5 |
| 20260508094508 | 8 | 301 | 1.6 | 9.7 | 0.00 | 0.46 | 0.03 | 89 | 1011.6 |
| 20260508093007 | 8 | 288 | 3.2 | 6.4 | 0.00 | 0.46 | 0.03 | 89 | 1011.8 |
| 20260508091559 | 8 | 295 | 4.8 | 11.3 | 0.00 | 0.46 | 0.03 | 89 | 1012.0 |
| 20260508090101 | 8 | 283 | 3.2 | 9.7 | 0.00 | 0.46 | 0.03 | 89 | 1011.9 |
| 20260508084555 | 7 | 290 | 3.2 | 8.0 | 0.00 | 0.46 | 0.03 | 90 | 1011.8 |
| 20260508083052 | 7 | 277 | 1.6 | 8.0 | 0.00 | 0.46 | 0.03 | 90 | 1011.8 |
| 20260508081555 | 7 | 277 | 1.6 | 9.7 | 0.00 | 0.46 | 0.03 | 90 | 1011.8 |
| 20260508080049 | 7 | 281 | 3.2 | 11.3 | 0.00 | 0.46 | 0.03 | 91 | 1011.9 |
| 20260508074546 | 7 | 274 | 1.6 | 8.0 | 0.00 | 0.46 | 0.03 | 92 | 1011.8 |
| 20260508073047 | 6 | 283 | 3.2 | 9.7 | 0.00 | 0.46 | 0.03 | 93 | 1011.7 |
| 20260508071543 | 6 | 286 | 1.6 | 6.4 | 0.00 | 0.46 | 0.03 | 93 | 1011.7 |
| 20260508070042 | 6 | 284 | 1.6 | 6.4 | 0.00 | 0.46 | 0.03 | 93 | 1011.8 |
| 20260508064559 | 6 | 271 | 1.6 | 6.4 | 0.03 | 0.46 | 0.03 | 93 | 1011.8 |
| 20260508063040 | 6 | 277 | 1.6 | 4.8 | 0.03 | 0.46 | 0.03 | 93 | 1011.9 |
| 20260508061542 | 6 | 264 | 1.6 | 4.8 | 0.03 | 0.46 | 0.03 | 93 | 1012.0 |
| 20260508060039 | 6 | 284 | 1.6 | 6.4 | 0.03 | 0.46 | 0.03 | 94 | 1012.1 |
| 20260508054558 | 6 | 260 | 1.6 | 6.4 | 0.00 | 0.43 | 0.00 | 94 | 1012.2 |
| 20260508053034 | 6 | 280 | 0.0 | 1.6 | 0.00 | 0.43 | 0.00 | 94 | 1012.3 |
| 20260508051533 | 6 | 231 | 0.0 | 3.2 | 0.00 | 0.43 | 0.00 | 94 | 1012.3 |
| 20260508050038 | 6 | 240 | 0.0 | 0.0 | 0.00 | 0.43 | 0.00 | 93 | 1012.3 |
| 20260508044530 | 6 | 240 | 0.0 | 3.2 | 0.00 | 0.43 | 0.00 | 93 | 1012.4 |